STARLINK-1044 (44749 NORAD) Tracking and Keplerian Element Data

This shows tracking and keplerian element data for the satellite.

Feedback or suggestion? Click here.




ElementValue
Catalog44749
NameSTARLINK-1044
Epoch Orbit2117
Epoch Day87.91667824
Epoch Year2020
RAAN240.5752
Inclination53.0017
Eccentricity0.0001791
Argument of Perigee104.6651
Mean Anonmoly265.0598
Mean Motion15.05574961
Decay Rate0.00026206
L11 44749U 19074AN 20087.91667824 .00026206 00000-0 18113-2 0 9991
L22 44749 53.0017 240.5752 0001791 104.6651 265.0598 15.05574961 21171

Live tracking and technical data element details for STARLINK-1044 (NORAD 44749). STARLINK-1044 can be tracked NOW for your location showing map with azimuth and elevation plus other details from your city location.

Track the satellite on the map from your city or location and see movement details for azimuth, elevation, latitude, longitude, range, height, and movement on the map or in text.







IsCatalogInMostPopularTable: catalog: 44749, numindb: 38
Update: records affected: 1



GetName: 44749 STARLINK-1044

Hit Count: updated at: Sat, 28 Mar 2020 20:12:30 GMT